Location: Port-Aux-Quilles Astronomical Observatory
(47.9769°N, 69.9642°W)
Time: 00:37:38
(UTC-05:00)

Envisat - Pass Details

Date: 30 October 2019
Orbit: 764 x 766 km, 98.1° (Epoch: 17 November)

Event Time Altitude Azimuth Distance (km) Brightness Sun altitude
Rises 18:58:52 0° 178° (S) 3,219 6.2 -16.2°
Reaches altitude 10° 19:01:13 10° 182° (S) 2,298 5.5 -16.6°
Maximum altitude 19:06:11 54° 260° (W) 926 3.8 -17.4°
Drops below altitude 10° 19:11:11 10° 338° (NNW) 2,314 5.7 -18.2°
Sets 19:13:33 0° 343° (NNW) 3,244 6.5 -18.6°
